Location: Katlewo
(53.4057°N, 19.8111°E)
Time: 22:15:47
(UTC+01:00)

ISS - Visible Passes

Search period start: 19 January 2018 00:00
Search period end: 29 January 2018 00:00
Orbit: 402 x 407 km, 51.6° (Epoch: 20 January)

Date Brightness Start Highest point End Pass type
(mag) Time Alt. Az. Time Alt. Az. Time Alt. Az.
26 Jan -0.9 18:56:04 10° SSW 18:56:11 11° SSW 18:56:11 11° SSW visible
27 Jan -1.7 18:04:31 10° S 18:06:11 15° SSE 18:06:11 15° SSE visible
28 Jan -1.9 18:47:07 10° SW 18:48:46 23° SSW 18:48:46 23° SSW visible
